SCP
0 0 0 0 0 0 0 0 0 0 0 0 0 0 0 0 0 0 0 0 0 0 0 0 0 0 0 0 1 1 0 0 0 0 0 0 0 0 0 0 0 0 0 0
0 0 0 0 0 0 0 0 0 0 0 0 0 0 0 0 0 0 0 0 0 0 0 0 0 0 0 0 0 1 0 0 0 0 0 0 0 0 0 0 0 0 0 0
0 0 0 0 0 0 0 0 0 0 0 0 0 0 0 0 0 0 0 0 0 0 0 0 0 0 0 0 0 0 0 0 0 0 0 0 0 0 0 0 0 0 0 0
0 0 0 0 0 0 0 0 0 0 0 0 0 0 0 0 0 0 0 0 0 0 0 0 0 0 0 0 1 0 0 0 0 0 0 0 0 0 0 0 0 0 0 0
0 0 0 0 0 0 0 0 0 0 0 0 0 0 0 0 0 0 0 0 0 0 0 0 0 0 0 0 1 0 0 0 0 0 0 0 0 0 0 0 0 0 0 0
0 0 0 0 0 0 0 0 0 0 0 0 0 0 0 0 0 0 0 0 0 0 0 0 0 0 0 0 0 0 0 0 0 0 0 0 0 0 0 0 0 0 0 0
0 0 0 0 0 0 0 0 0 0 0 0 0 0 0 0 0 0 0 0 0 0 0 0 0 0 0 0 0 0 0 0 0 0 0 0 0 0 0 0 0 0 0 0
0 0 0 0 0 0 0 0 0 0 0 0 0 0 0 0 0 0 0 0 0 0 0 0 0 0 0 0 0 0 0 0 0 0 0 0 0 0 0 0 0 0 0 0
0 0 0 0 0 0 0 0 0 0 0 0 0 0 0 0 0 0 0 0 0 0 0 0 0 0 0 0 0 0 0 0 0 0 0 0 0 0 0 0 0 0 0 0
0 0 0 0 0 0 0 0 0 0 0 0 0 0 0 0 0 0 0 0 0 0 0 0 0 0 0 0 0 0 0 0 0 0 0 0 0 0 0 0 0 0 0 0
0 0 0 0 0 0 0 0 0 0 0 0 0 0 0 0 0 0 0 0 0 0 0 0 0 0 0 0 0 0 0 0 0 0 0 0 0 0 0 0 0 0 0 0
0 0 0 0 0 0 0 0 0 0 0 0 0 0 0 0 0 0 0 0 0 0 0 0 0 0 0 0 0 0 0 0 0 0 0 0 0 0 0 0 0 0 0 0
0 0 0 0 0 0 0 0 0 0 0 0 0 0 0 0 0 0 0 0 0 0 0 0 0 0 0 0 0 0 0 0 0 0 0 0 0 0 0 0 0 0 0 0
0 0 0 0 0 0 0 0 0 0 0 0 0 0 0 0 0 0 0 0 0 0 0 0 0 0 0 0 0 0 0 0 0 0 0 0 0 0 0 0 0 0 0 0
0 0 0 0 0 0 0 0 0 0 0 0 0 0 0 0 0 0 0 0 0 0 0 0 0 0 0 0 0 0 0 0 0 0 0 0 0 0 0 0 0 0 0 0
0 0 0 0 0 0 0 0 0 0 0 0 0 0 0 0 0 0 0 0 0 0 0 0 0 0 0 0 0 0 0 0 0 0 0 0 0 0 0 0 0 0 0 0
0 0 0 0 0 0 0 0 0 0 0 0 0 0 0 0 0 0 0 0 0 0 0 0 0 0 0 0 0 0 0 0 0 0 0 0 0 0 0 0 0 0 0 0
0 0 0 0 0 0 0 0 0 0 0 0 0 0 0 0 0 0 0 0 0 0 0 0 0 0 0 0 0 0 0 0 0 0 0 0 0 0 0 0 0 0 0 0
0 0 0 0 0 0 0 0 0 0 0 0 0 0 0 0 0 0 0 0 0 0 0 0 0 0 0 0 0 0 0 0 0 0 0 0 0 0 0 0 0 0 0 0
0 0 0 0 0 0 0 0 0 0 0 0 0 0 0 0 0 0 0 0 0 0 0 0 0 0 0 0 0 0 0 0 0 0 0 0 0 0 0 0 0 0 0 0
0 0 0 0 0 0 0 0 0 0 0 0 0 0 0 0 0 0 0 0 0 0 0 0 0 0 0 0 0 0 0 0 0 0 0 0 0 0 0 0 0 0 0 0
0 0 0 0 0 0 0 0 0 0 0 0 0 0 0 0 0 0 0 0 0 0 0 0 0 0 0 0 0 0 0 0 0 0 0 0 0 0 0 0 0 0 0 0
0 0 0 0 0 0 0 0 0 0 0 0 0 0 0 0 0 0 0 0 0 0 0 0 0 0 0 0 0 0 0 0 0 0 0 0 0 0 0 0 0 0 0 0
0 0 0 0 0 0 0 0 0 0 0 0 0 0 0 0 0 0 0 0 0 0 0 0 0 0 0 0 0 0 0 0 0 0 0 0 0 0 0 0 0 0 0 0
0 0 0 0 0 0 0 0 0 0 0 0 0 0 0 0 0 0 0 0 0 0 0 0 0 0 0 0 0 0 0 0 0 0 0 0 0 0 0 0 0 0 0 0
0 0 0 0 0 0 0 0 0 0 0 0 0 0 0 0 0 0 0 0 0 0 0 0 0 0 0 0 0 0 0 0 0 0 0 0 0 0 0 0 0 0 0 0
Wind_Speed
3 5 7 8 9 7 6 7 9 7 3 4 9 13 13 9 7 8 8 6 6 5 4 3 2 2 1 2 2 2 3 3 2 2 2 2 3 3 3 2 3 4 3 3
4 8 8 6 6 7 8 9 9 6 2 5 8 12 11 8 8 7 7 7 6 4 3 2 2 2 2 2 3 3 3 3 3 2 2 2 2 3 2 2 3 4 4 4
8 3 4 6 6 7 9 11 9 7 4 5 8 10 8 5 4 4 4 4 4 4 4 3 2 2 2 3 3 3 3 3 3 2 1 1 2 2 2 3 3 4 4 4
6 6 4 6 7 8 9 8 8 7 6 4 4 8 7 5 4 3 3 3 4 4 4 3 3 2 3 3 3 3 3 3 3 3 2 3 3 3 4 3 3 3 4 4
5 3 5 7 7 8 6 3 6 6 6 6 5 7 7 3 5 3 3 3 4 4 4 3 3 3 3 2 2 2 3 3 3 3 3 4 3 3 2 2 4 4 4 4
4 2 3 5 4 4 3 2 3 4 4 8 8 8 8 3 4 3 2 3 4 4 4 4 3 2 2 1 1 1 2 2 2 3 3 4 4 3 3 3 4 4 3 3
4 4 2 2 3 4 4 4 3 4 5 7 3 7 7 3 2 2 3 3 3 3 3 4 4 3 2 2 1 2 2 2 2 3 3 4 4 5 5 4 4 4 3 4
4 4 4 3 5 5 7 7 6 5 5 4 4 8 4 1 2 2 3 3 3 3 3 4 4 3 3 3 2 2 2 2 3 3 4 4 4 3 3 4 4 4 4 4
4 4 1 3 3 5 5 7 5 3 2 5 6 4 5 1 1 2 2 2 3 3 3 3 3 4 4 3 3 3 3 2 3 3 4 4 4 4 4 4 4 3 3 3
3 4 2 1 1 2 4 3 4 5 5 6 6 6 5 2 3 2 2 2 3 3 3 3 3 3 3 3 3 3 3 3 3 3 3 3 4 4 4 4 4 4 4 4
3 4 2 2 5 5 5 5 4 4 4 5 6 4 1 3 3 2 2 2 3 3 4 3 3 3 3 3 3 3 3 3 3 3 3 3 4 4 4 4 4 4 4 4
3 3 4 5 2 2 4 5 6 5 5 5 6 5 2 2 1 1 2 2 3 3 3 3 4 4 4 4 4 3 3 3 3 3 3 3 4 3 4 4 4 4 4 4
2 3 3 3 3 2 4 5 6 4 3 5 7 6 2 0 1 2 2 3 3 3 3 4 4 4 4 4 4 4 4 4 4 3 3 3 3 3 4 4 4 4 4 4
2 4 6 9 4 3 5 6 7 7 6 8 11 11 5 4 4 4 4 4 3 3 4 4 4 4 4 4 4 4 4 4 4 4 3 3 4 4 4 3 3 4 4 3
3 5 7 9 7 5 7 9 9 11 11 11 11 12 12 7 5 4 4 4 4 4 4 4 4 4 4 4 4 5 5 5 4 4 4 4 4 4 3 3 3 3 3 3
3 4 5 8 6 6 8 10 11 13 12 14 13 15 10 6 5 5 4 4 4 5 5 5 4 4 4 5 5 5 5 5 4 4 4 4 4 3 3 3 3 3 3 3
3 4 4 7 5 5 11 11 12 11 11 11 15 14 6 5 6 7 5 5 6 5 5 5 4 4 4 5 5 5 5 5 4 4 4 4 4 3 3 3 2 2 3 3
5 5 4 5 3 11 6 3 8 10 11 11 11 9 7 7 6 5 4 5 5 5 5 5 4 4 4 4 5 5 4 4 4 4 4 4 4 4 3 3 3 3 2 2
7 7 4 4 7 9 6 4 5 8 10 8 11 11 8 5 5 5 3 3 4 4 3 3 3 4 4 4 4 4 4 4 4 4 5 5 4 4 3 3 3 3 2 2
4 5 5 5 7 9 5 1 2 4 8 3 6 8 6 3 6 4 0 1 2 2 2 3 3 3 3 4 4 4 4 4 4 5 5 5 5 4 4 4 3 3 2 2
4 5 7 9 9 9 3 1 4 6 4 2 2 4 4 5 5 2 1 1 2 2 2 3 3 3 3 4 4 4 4 5 6 6 5 5 4 4 4 4 3 2 2 2
6 6 7 7 8 8 1 4 5 3 2 1 2 2 3 4 3 2 2 2 2 2 3 2 2 3 4 4 4 4 5 6 6 5 5 4 4 4 3 3 3 2 2 2
6 5 4 7 6 1 3 4 1 2 2 2 3 3 3 3 3 3 2 2 2 2 3 2 2 3 4 4 4 4 6 6 5 5 5 4 4 3 3 3 3 2 1 2
4 2 4 6 7 4 3 2 2 2 3 3 3 3 3 4 3 3 3 2 2 3 3 3 2 3 4 4 4 4 5 5 4 4 5 4 3 4 3 3 2 2 2 2
4 3 4 7 6 4 4 4 4 3 3 3 3 3 3 3 3 3 3 3 3 3 3 2 3 3 4 4 5 5 4 4 4 4 4 3 3 3 3 3 3 3 3 3
4 6 6 7 4 4 5 3 3 3 3 3 3 3 3 2 3 3 3 3 3 3 3 3 3 4 4 4 5 5 4 3 3 3 3 3 2 2 2 3 4 5 5 6
Wind_Direction
176 199 217 221 221 242 239 242 256 261 252 249 255 269 279 284 275 273 271 268 262 263 279 294 283 266 237 219 214 203 196 195 191 192 196 208 210 204 205 207 207 205 199 197
181 225 238 234 219 221 229 244 258 271 248 249 268 273 275 273 266 267 272 273 276 281 288 293 287 262 236 223 217 208 200 192 202 212 209 223 221 224 219 214 212 207 203 203
214 234 229 207 210 220 236 238 248 259 279 239 274 272 259 256 256 271 287 287 290 288 292 295 289 266 246 233 224 220 212 206 208 217 209 195 201 204 211 216 215 214 210 206
232 241 219 216 224 223 243 237 242 247 258 258 262 280 269 266 274 290 304 303 305 304 300 301 295 278 252 244 231 220 211 207 206 201 210 212 223 225 226 223 218 216 216 214
224 227 223 230 237 227 241 236 231 236 241 257 233 253 277 267 269 291 308 311 309 315 315 307 299 284 271 257 239 226 214 207 206 214 218 222 236 248 239 223 216 215 215 218
251 244 247 251 252 225 202 192 204 211 226 246 234 234 268 252 268 297 325 331 329 328 326 325 325 315 297 288 259 239 223 222 222 226 228 231 235 242 244 237 222 217 218 219
250 227 227 234 198 191 206 208 228 223 222 240 206 228 253 271 281 286 302 322 331 332 334 338 346 347 334 318 289 260 240 237 236 236 239 242 242 240 237 240 235 226 219 222
240 241 204 213 219 208 210 216 222 242 248 247 198 231 242 286 309 304 305 316 328 335 342 340 343 340 338 327 311 282 256 252 248 244 247 247 248 246 247 245 243 239 237 229
232 246 200 226 245 220 203 219 239 240 262 257 234 240 258 247 281 295 310 326 330 338 343 341 340 336 334 333 326 306 289 271 262 256 254 250 249 252 256 251 244 242 249 248
240 255 265 254 224 231 244 201 193 211 232 248 250 238 240 232 257 282 309 328 338 351 351 346 335 333 332 329 333 325 307 292 272 264 258 256 251 251 255 252 246 247 248 245
240 238 257 208 211 215 191 194 212 218 240 242 258 246 189 219 226 245 279 320 334 342 344 344 340 340 342 345 344 335 326 310 296 277 263 258 255 255 253 253 253 250 249 241
219 233 249 236 231 277 217 209 202 217 225 233 258 262 114 198 246 271 297 324 333 341 348 348 346 350 349 346 341 334 328 317 308 295 279 265 261 255 253 255 255 253 251 243
181 198 250 244 199 201 228 224 217 223 222 223 237 248 111 77 325 303 295 319 335 340 344 349 353 352 345 339 335 330 325 320 319 311 296 280 269 261 258 262 260 254 254 246
228 215 228 247 263 203 225 226 214 209 221 232 237 251 257 277 294 308 310 312 322 332 335 342 346 342 339 337 333 329 326 324 320 313 306 297 288 278 267 264 263 257 256 248
236 238 242 259 268 245 243 237 218 217 227 236 248 252 263 268 275 288 298 301 311 322 327 331 332 332 332 333 333 331 329 329 323 314 309 304 300 295 287 275 268 265 262 258
233 244 248 256 250 245 258 251 232 230 236 242 257 263 271 274 272 279 280 284 290 302 310 315 320 325 326 327 327 327 325 326 322 314 309 307 305 304 298 288 279 268 265 264
209 210 242 256 258 261 254 237 222 224 227 231 244 256 270 264 261 266 269 271 278 288 296 302 307 311 316 318 320 317 318 322 320 314 315 314 310 306 302 298 288 279 272 264
216 221 237 259 246 242 246 231 220 224 235 231 246 262 264 270 276 272 273 270 274 286 296 302 307 311 316 318 319 320 324 327 329 329 327 324 319 310 306 299 293 291 290 277
224 216 220 229 244 261 265 231 209 221 247 238 246 258 268 279 268 258 267 278 284 297 307 312 318 316 322 324 327 329 333 338 340 335 329 324 319 312 305 299 297 296 290 283
215 218 221 227 241 243 250 239 224 209 249 246 245 258 262 234 249 260 358 286 312 327 329 333 338 334 335 335 334 334 334 338 334 328 321 317 315 309 300 295 295 298 292 285
198 209 222 231 246 258 276 315 165 204 264 337 274 266 245 234 263 337 9 329 332 330 334 343 344 341 337 338 339 336 335 332 327 324 321 322 321 315 304 301 303 302 299 295
198 199 210 213 232 252 125 141 195 257 353 326 299 281 254 261 293 315 316 318 325 329 333 338 337 335 342 348 341 332 329 330 330 327 326 327 327 322 315 310 311 309 298 290
216 217 213 210 227 323 150 183 253 1 313 308 303 295 272 269 273 284 288 290 305 313 315 327 330 331 340 346 340 324 326 333 332 328 326 328 332 330 326 314 309 311 301 289
242 263 241 251 258 270 244 255 300 298 285 301 305 295 266 263 266 269 277 291 305 316 316 327 329 323 323 332 332 322 326 330 326 322 324 330 334 335 337 329 322 311 295 288
239 217 240 252 273 295 262 253 271 276 285 299 312 299 262 249 261 265 275 284 293 303 314 319 308 301 306 319 320 323 329 331 322 320 322 325 331 331 331 334 327 314 304 290
215 213 226 248 258 257 280 300 292 281 288 292 300 304 297 265 261 274 281 292 296 296 305 305 299 296 302 311 310 317 324 324 317 313 318 317 320 323 327 334 336 338 326 326